STARLINK-34060, 63815

Orbit data source: Space-Track

STARLINK-34060, 63815 is a payload satellite owned by SpaceX/Seattle (US) in LEO that was launched on Sun, 04 May 2025 UTC via an FALCON 9 launch vehicle from the Air Force Eastern Test Range (AFETR). Payload-class satellites include a variety of spacecraft equipped with specific instruments for various scientific and technological missions. These include communications satellites like Starlink; space stations such as the ISS; scientific satellites like the Hubble; Earth observation satellites from companies like Planet Labs, Umbra, and HawkEye 360; GPS; miniature CubeSats for education and research; and military/defense satellites.

Loading next visibility...
Identifier
63815, 2025-092M
Orbit
LEO
Last TLE update
16 hours ago
Origin
Manufacturer
SpaceX/Seattle
Mission
Operational spacecraft
Bus & Motor
STARLINK V2MO, Unknown motor
Mass
575 kg wet, ~530 kg dry
Launch date (UTC)
2025-05-04 (1 week ago)
Launch vehicle
FALCON 9
Launch site
Air Force Eastern Test Range (AFETR)
Object type
Payload
Rocket body
Debris
Shape & HBR
Unknown
Radar Cross Section
Medium (>0.1 m² and <1 m²)

Expand to show TLE details & history

TLE from 16 hours ago
0 STARLINK-34060
1 63815U 25092M   25132.91668981 -.00920556  00000-0 -33841-2 0  9992
2 63815  43.0007  80.1432 0001652 257.2259  60.5357 15.89369734  2400
Epoch: 2025-05-12T22:00Z
Definitive object data (Epoch: 2025-05-12T22:00:01.999Z)
Latitude
-27.45499°
Longitude
-154.4305°
Altitude
310.531 km
Speed
7.723 km/s
True Right ascension
03h 06m 00s
True Declination
-27° 18' 19"
Sunlit
Object was in daylight at TLE epoch
Visualization TLE readout
Latitude
-36.26065°
Longitude
106.47161°
Altitude
317.087 km
Speed
7.719 km/s
Apparent Right ascension
16h 13m 21s
Apparent Declination
-69° 36' 45"
Sunlit
Object is in full shadow
Visualization observer readout
Local Sidereal Time
22:42:06
Azimuth
206.575° SW
Elevation
-39.413°
Doppler factor
1
Orbital elements
Apogee altitude
307.15 km
Perigee altitude
304.942 km
Semi-major axis
6,684.183 km
Eccentricity
0.0001652
Inclination
43.0007°
RAAN
80.1432°
Arg. of periapsis
257.2259°
True anomaly
60.55218°
Mean anomaly
60.5357°
Eccentric anomaly
60.54394°
Mean motion
3.97165 °/min
BSTAR
-0.0033841
Orbital period
90.64 mins
Loading maneuver chart data...
Loading SW <> Apogee altitude chart data...
Loading historical data...
Loading historical data...
Loading historical data...
Loading historical data...
Loading historical data...
Loading historical data...
Loading historical data...

STARLINK-34060 Visibility forecast

Observer location: undefined°, undefined°

Span
Click to sort rows by Start time (UTC) header in descending order
Start Az.
Max El. time (UTC)
Max El. Az.
Max El.
End time (UTC)
End Az.
4 mins2025-05-14 00:04:13.319Z227.854° WSW2025-05-14 00:06:13.319Z144.011° SSE36.715°2025-05-14 00:08:13.319Z81.797° E
|